This is the latest recevied weather packets stored in our database for station/object KB3UMW-13. If no packets are shown the sender has not sent any weather packets the latest 10 day(s).
| Time | Temp. | Humidity | Pressure | Rain* | Wind** | Luminosity | Snow |
|---|---|---|---|---|---|---|---|
| 1777687342 | 5.56° C | 97% | 1013.2 hPa | 0 mm | - | 0 W/m² | - |
| 1777687040 | 5.56° C | 96% | 1013.2 hPa | 0.51 mm | - | 0 W/m² | - |
| 1777686736 | 5.56° C | 97% | 1013.3 hPa | 0.51 mm | - | 0 W/m² | - |
| 1777686434 | 5.56° C | 96% | 1013.2 hPa | 0 mm | - | 0 W/m² | - |
| 1777686130 | 5.56° C | 97% | 1013.3 hPa | 0.51 mm | - | 0 W/m² | - |
| 1777685826 | 5.56° C | 97% | 1013.2 hPa | 0.51 mm | - | 0 W/m² | - |
| 1777685521 | 5.56° C | 96% | 1012.8 hPa | 0 mm | - | 0 W/m² | - |
| 1777685219 | 5.56° C | 96% | 1012.7 hPa | 0 mm | - | 0 W/m² | - |
| 1777684917 | 5.56° C | 96% | 1012.9 hPa | 0 mm | - | 0 W/m² | - |
| 1777684614 | 5.56° C | 96% | 1013.1 hPa | 0 mm | - | 0 W/m² | - |
| 1777684309 | 5.56° C | 96% | 1012.9 hPa | 0 mm | - | 0 W/m² | - |
| 1777684007 | 5.56° C | 96% | 1012.7 hPa | 0 mm | - | 0 W/m² | - |
| 1777683703 | 5.56° C | 96% | 1012.7 hPa | 0.51 mm | - | 0 W/m² | - |
| 1777683401 | 5.56° C | 96% | 1012.6 hPa | 0 mm | - | 0 W/m² | - |
| 1777683099 | 5.56° C | 96% | 1012.4 hPa | 1.78 mm | - | 0 W/m² | - |
| 1777682794 | 5.56° C | 95% | 1012.4 hPa | 1.78 mm | - | 0 W/m² | - |
| 1777682491 | 5.56° C | 94% | 1012.5 hPa | 0 mm | - | 0 W/m² | - |
| 1777682189 | 5.56° C | 92% | 1012.1 hPa | 0.51 mm | - | 0 W/m² | - |
| 1777681886 | 5.56° C | 93% | 1012 hPa | 0.51 mm | - | 0 W/m² | - |
| 1777681582 | 5.56° C | 91% | 1012 hPa | 0.51 mm | - | 0 W/m² | - |
| 1777681280 | 6.11° C | 92% | 1011.8 hPa | 1.27 mm | - | 0 W/m² | - |
| 1777680977 | 6.11° C | 90% | 1011.8 hPa | 2.29 mm | - | 1 W/m² | - |
| 1777680674 | 6.67° C | 91% | 1011.8 hPa | 1.78 mm | - | 1 W/m² | - |
| 1777680373 | 6.67° C | 89% | 1011.8 hPa | 1.27 mm | - | 1 W/m² | - |
| 1777680069 | 7.22° C | 90% | 1011.7 hPa | 0 mm | - | 1 W/m² | - |
* Rain latest hour (hover to see other rain measurements)
** Current wind speed in m/s (hover to see current wind gust speed)